This demonstration page uses our WeatherBlox Daily Observations layout. Learn more.

Left ArrowRight Arrow

44.8408, -93.29828

Hourly Observations for July 29, 2016

Temp ( °F °C ) Dew Point ( °F °C ) Humidity (%) Winds ( mph kmh ) Pressure ( in mb ) Visibility ( mi km ) Precip ( " mm )
12:53 am 00:53 Mostly Cloudy 66 18.9 57 13.9 73 73 NE 3 6 30.05 1018 10 16 0.00 0.00
1:53 am 01:53 Mostly Cloudy 66 18.9 56 13.3 70 70 N 5 7 30.05 1018 10 16 0.00 0.00
2:53 am 02:53 Mostly Cloudy 65 18.3 56 13.3 73 73 N 5 7 30.05 1018 10 16 0.00 0.00
3:53 am 03:53 Partly Cloudy 63 17.2 56 13.3 78 78 N 6 9 30.04 1017 10 16 0.00 0.00
4:53 am 04:53 Partly Cloudy 62 16.7 56 13.3 80 80 N 7 11 30.04 1017 10 16 0.00 0.00
5:53 am 05:53 Partly Cloudy 61 16.1 55 12.8 81 81 N 6 9 30.05 1018 10 16 0.00 0.00
6:53 am 06:53 Mostly Cloudy 62 16.7 56 13.3 80 80 NNE 8 13 30.05 1018 10 16 0.00 0.00
7:53 am 07:53 Mostly Cloudy 64 17.8 55 12.8 73 73 NE 8 13 30.06 1018 10 16 0.00 0.00
8:53 am 08:53 Mostly Cloudy 66 18.9 55 12.8 68 68 E 8 13 30.06 1018 10 16 0.00 0.00
9:53 am 09:53 Partly Cloudy 69 20.6 55 12.8 61 61 VRB 7 11 30.07 1018 10 16 0.00 0.00
10:53 am 10:53 Partly Cloudy 72 22.2 54 12.2 53 53 NE 3 6 30.07 1018 10 16 0.00 0.00
11:53 am 11:53 Mostly Sunny 74 23.3 51 10.6 45 45 NNE 8 13 30.07 1018 10 16 0.00 0.00
12:53 pm 12:53 Sunny 76 24.4 50 10 40 40 NE 13 20 30.06 1018 10 16 0.00 0.00
1:53 pm 13:53 Mostly Sunny 76 24.4 48 8.9 37 37 NE 7 11 30.06 1018 10 16 0.00 0.00
2:53 pm 14:53 Mostly Sunny 78 25.6 50 10 37 37 VRB 6 9 30.04 1017 10 16 0.00 0.00
3:18 pm 15:18 Mostly Sunny 78 25.6 50 10 37 37 NE 7 11 29.97 1015 10 16 0.00 0.00
3:53 pm 15:53 Mostly Sunny 78 25.6 50 10 37 37 N 9 15 30.02 1017 10 16 0.00 0.00
4:53 pm 16:53 Mostly Sunny 78 25.6 50 10 37 37 N 12 19 30.02 1017 10 16 0.00 0.00
5:53 pm 17:53 Mostly Sunny 78 25.6 51 10.6 39 39 N 9 15 30.02 1017 10 16 0.00 0.00
6:53 pm 18:53 Mostly Sunny 77 25 52 11 42 42 NE 8 13 29.97 1015 10 16 0.00 0.00
7:53 pm 19:53 Partly Cloudy 75 23.9 52 11.1 45 45 VRB 7 11 30.01 1016 10 16 0.00 0.00
8:53 pm 20:53 Partly Cloudy 74 23.3 52 11.1 46 46 Calm 30.02 1017 10 16 0.00 0.00
9:53 pm 21:53 Partly Cloudy 70 21.1 55 12.8 59 59 NNE 6 9 30.02 1017 10 16 0.00 0.00
10:53 pm 22:53 Mostly Cloudy 69 20.6 56 13.3 63 63 N 5 7 30.02 1017 10 16 0.00 0.00
11:53 pm 23:53 Mostly Cloudy 70 21.1 57 13.9 64 64 N 3 6 30.03 1017 10 16 0.00 0.00

Powered by AerisWeather